RPA3520 KCMH-KORD

Flight info

Callsign RPA3520
Flight time 0h 51m
Altitude 30000
Route PKACZ TARRY FWA WATSN4
Aircraft E75L/M-SDE3GILORVW/S

Departure

Time 2026-05-03 23:42
Airport John Glenn Columbus International Airport (KCMH)

Arrival

Time 2026-05-04 00:34
Airport Chicago O'Hare International Airport (KORD)
Time Latitude Longitude Altitude Speed Heading
2026-05-03 23:20 39.99787 -82.87998 820 ft 0 kts 282°
2026-05-03 23:35 39.99786 -82.87992 820 ft 2 kts 282°
2026-05-03 23:35 39.99782 -82.87968 820 ft 3 kts 285°
2026-05-03 23:35 39.99777 -82.87943 818 ft 3 kts 284°
2026-05-03 23:36 39.99774 -82.87917 821 ft 3 kts 265°
2026-05-03 23:36 39.99779 -82.87902 821 ft 2 kts 191°
2026-05-03 23:36 39.99786 -82.87901 817 ft 0 kts 184°
2026-05-03 23:38 39.99783 -82.87902 821 ft 2 kts 184°
2026-05-03 23:38 39.99771 -82.87903 816 ft 0 kts 183°
2026-05-03 23:39 39.99770 -82.87903 817 ft 1 kts 183°
2026-05-03 23:39 39.99722 -82.87906 821 ft 12 kts 184°
2026-05-03 23:39 39.99636 -82.87913 820 ft 13 kts 176°
2026-05-03 23:39 39.99591 -82.87835 822 ft 12 kts 98°
2026-05-03 23:40 39.99533 -82.87778 822 ft 12 kts 178°
2026-05-03 23:40 39.99443 -82.87789 822 ft 15 kts 186°
2026-05-03 23:40 39.99361 -82.87726 820 ft 17 kts 99°
2026-05-03 23:40 39.99353 -82.87559 817 ft 20 kts 94°
2026-05-03 23:41 39.99335 -82.87361 817 ft 21 kts 113°
2026-05-03 23:41 39.99257 -82.87328 817 ft 18 kts 191°
2026-05-03 23:41 39.99170 -82.87472 814 ft 20 kts 275°
2026-05-03 23:41 39.99197 -82.87951 816 ft 88 kts 274°
2026-05-03 23:42 39.99256 -82.89030 825 ft 148 kts 274°
2026-05-03 23:42 39.99338 -82.90500 1338 ft 175 kts 271°
2026-05-03 23:42 39.99400 -82.92150 2023 ft 188 kts 269°
2026-05-03 23:42 39.99452 -82.93853 2955 ft 192 kts 268°
2026-05-03 23:43 39.99461 -82.95041 3433 ft 199 kts 266°
2026-05-03 23:43 39.99507 -82.96855 4297 ft 209 kts 270°
2026-05-03 23:43 39.99583 -82.98828 4892 ft 226 kts 270°
2026-05-03 23:43 39.99683 -83.01645 5738 ft 243 kts 270°
2026-05-03 23:44 39.99759 -83.03867 6559 ft 246 kts 270°
2026-05-03 23:44 39.99833 -83.06107 7369 ft 249 kts 271°
2026-05-03 23:44 39.99883 -83.07604 7896 ft 251 kts 272°
2026-05-03 23:44 39.99955 -83.09888 8653 ft 253 kts 273°
2026-05-03 23:45 40.00027 -83.12196 9448 ft 256 kts 274°
2026-05-03 23:45 40.00099 -83.14525 10181 ft 260 kts 274°
2026-05-03 23:45 40.00172 -83.16953 10620 ft 273 kts 275°
2026-05-03 23:45 40.00274 -83.20311 11380 ft 285 kts 275°
2026-05-03 23:46 40.00327 -83.22063 11858 ft 288 kts 275°
2026-05-03 23:46 40.00406 -83.24695 12606 ft 293 kts 274°
2026-05-03 23:46 40.00484 -83.27329 13407 ft 297 kts 274°
2026-05-03 23:46 40.00563 -83.30036 14218 ft 300 kts 274°
2026-05-03 23:47 40.00641 -83.32753 15082 ft 300 kts 274°
2026-05-03 23:47 40.00719 -83.35479 15928 ft 302 kts 274°
2026-05-03 23:47 40.00798 -83.38222 16740 ft 303 kts 274°
2026-05-03 23:47 40.00875 -83.40981 17555 ft 305 kts 274°
2026-05-03 23:48 40.00953 -83.43755 18345 ft 307 kts 274°
2026-05-03 23:48 40.01030 -83.46514 19025 ft 309 kts 274°
2026-05-03 23:48 40.01107 -83.49326 19696 ft 311 kts 274°
2026-05-03 23:48 40.01184 -83.52155 20350 ft 313 kts 274°
2026-05-03 23:49 40.01262 -83.55009 20912 ft 317 kts 273°
2026-05-03 23:49 40.01345 -83.57895 21541 ft 319 kts 275°
2026-05-03 23:49 40.01630 -83.60769 22140 ft 321 kts 279°
2026-05-03 23:49 40.01992 -83.63648 22764 ft 323 kts 279°
2026-05-03 23:50 40.02354 -83.66544 23397 ft 325 kts 279°
2026-05-03 23:50 40.02719 -83.69465 23988 ft 326 kts 279°
2026-05-03 23:50 40.03079 -83.72351 24555 ft 327 kts 279°
2026-05-03 23:50 40.03445 -83.75288 25127 ft 328 kts 279°
2026-05-03 23:51 40.03812 -83.78230 25687 ft 329 kts 279°
2026-05-03 23:51 40.04180 -83.81186 26203 ft 331 kts 279°
2026-05-03 23:51 40.04548 -83.84151 26696 ft 332 kts 279°
2026-05-03 23:51 40.04922 -83.87128 27174 ft 333 kts 281°
2026-05-03 23:52 40.05596 -83.90026 27627 ft 336 kts 291°
2026-05-03 23:52 40.06740 -83.92696 28153 ft 339 kts 301°
2026-05-03 23:52 40.08243 -83.95041 28570 ft 344 kts 308°
2026-05-03 23:52 40.09863 -83.97347 29009 ft 346 kts 308°
2026-05-03 23:53 40.11519 -83.99666 29313 ft 351 kts 308°
2026-05-03 23:53 40.13196 -84.02000 29718 ft 353 kts 308°
2026-05-03 23:53 40.14884 -84.04338 30124 ft 354 kts 308°
2026-05-03 23:53 40.16614 -84.06710 30115 ft 366 kts 309°
2026-05-03 23:54 40.20237 -84.11626 30160 ft 384 kts 309°
2026-05-03 23:54 40.23981 -84.16685 29997 ft 392 kts 309°
2026-05-03 23:55 40.27784 -84.21838 29995 ft 395 kts 309°
2026-05-03 23:55 40.31602 -84.27020 29983 ft 396 kts 309°
2026-05-03 23:56 40.35405 -84.32188 29985 ft 398 kts 310°
2026-05-03 23:56 40.39253 -84.37435 29968 ft 400 kts 310°
2026-05-03 23:57 40.43157 -84.42674 29985 ft 402 kts 310°
2026-05-03 23:57 40.47047 -84.47943 29989 ft 402 kts 310°
2026-05-03 23:58 40.50893 -84.53198 29984 ft 402 kts 310°
2026-05-03 23:58 40.54761 -84.58507 29985 ft 402 kts 310°
2026-05-03 23:59 40.58623 -84.63824 29983 ft 402 kts 310°
2026-05-03 23:59 40.62476 -84.69142 29979 ft 401 kts 310°
2026-05-04 00:00 40.66294 -84.74421 29983 ft 400 kts 310°
2026-05-04 00:00 40.70132 -84.79738 29985 ft 400 kts 310°
2026-05-04 00:01 40.73971 -84.85065 29977 ft 401 kts 310°
2026-05-04 00:01 40.77809 -84.90401 29980 ft 401 kts 310°
2026-05-04 00:02 40.81654 -84.95758 29971 ft 404 kts 310°
2026-05-04 00:02 40.85501 -85.01125 29947 ft 407 kts 310°
2026-05-04 00:03 40.89388 -85.06558 29960 ft 407 kts 311°
2026-05-04 00:03 40.93280 -85.12007 29946 ft 407 kts 311°
2026-05-04 00:04 40.97168 -85.17459 29944 ft 408 kts 311°
2026-05-04 00:04 41.00972 -85.22946 29946 ft 407 kts 309°
2026-05-04 00:05 41.04766 -85.28530 29913 ft 410 kts 310°
2026-05-04 00:05 41.08589 -85.34154 29942 ft 412 kts 310°
2026-05-04 00:06 41.12406 -85.39774 29956 ft 413 kts 310°
2026-05-04 00:06 41.16243 -85.45447 29943 ft 413 kts 309°
2026-05-04 00:07 41.17798 -85.48633 29945 ft 413 kts 296°
2026-05-04 00:07 41.18799 -85.52204 29950 ft 413 kts 290°
2026-05-04 00:07 41.20594 -85.59462 29908 ft 414 kts 289°
2026-05-04 00:08 41.22365 -85.66727 29906 ft 413 kts 289°
2026-05-04 00:08 41.24111 -85.73953 29909 ft 414 kts 289°
2026-05-04 00:09 41.25861 -85.81234 29902 ft 413 kts 289°
2026-05-04 00:09 41.27117 -85.88683 29927 ft 416 kts 279°
2026-05-04 00:10 41.27756 -85.96339 29921 ft 416 kts 279°
2026-05-04 00:10 41.28378 -86.03958 29903 ft 418 kts 279°
2026-05-04 00:11 41.29266 -86.11584 29901 ft 417 kts 281°
2026-05-04 00:11 41.30186 -86.19206 29882 ft 416 kts 281°
2026-05-04 00:12 41.31080 -86.26800 29889 ft 416 kts 281°
2026-05-04 00:12 41.31965 -86.34395 29878 ft 416 kts 281°
2026-05-04 00:13 41.32837 -86.41947 29871 ft 416 kts 281°
2026-05-04 00:13 41.33268 -86.45701 29502 ft 403 kts 281°
2026-05-04 00:13 41.33677 -86.49299 29268 ft 385 kts 281°
2026-05-04 00:14 41.34103 -86.52775 28687 ft 375 kts 285°
2026-05-04 00:14 41.34972 -86.55983 28212 ft 365 kts 296°
2026-05-04 00:14 41.36095 -86.58999 27723 ft 362 kts 297°
2026-05-04 00:14 41.37215 -86.61938 27239 ft 360 kts 297°
2026-05-04 00:15 41.38343 -86.64904 26767 ft 359 kts 297°
2026-05-04 00:15 41.39660 -86.67706 26288 ft 357 kts 309°
2026-05-04 00:15 41.41495 -86.69928 25819 ft 359 kts 323°
2026-05-04 00:15 41.43689 -86.71526 25340 ft 360 kts 330°
2026-05-04 00:16 41.45928 -86.73008 24845 ft 359 kts 330°
2026-05-04 00:16 41.48156 -86.74492 24366 ft 357 kts 330°
2026-05-04 00:16 41.50363 -86.75973 23891 ft 355 kts 330°
2026-05-04 00:16 41.52587 -86.77394 23433 ft 355 kts 336°
2026-05-04 00:17 41.54958 -86.78166 22936 ft 358 kts 349°
2026-05-04 00:17 41.57439 -86.78463 22463 ft 358 kts 351°
2026-05-04 00:17 41.59911 -86.78718 21996 ft 355 kts 351°
2026-05-04 00:17 41.62371 -86.78973 21520 ft 353 kts 351°
2026-05-04 00:18 41.64808 -86.79225 21047 ft 351 kts 351°
2026-05-04 00:18 41.67237 -86.79492 20583 ft 348 kts 351°
2026-05-04 00:18 41.69638 -86.79813 20127 ft 346 kts 350°
2026-05-04 00:18 41.72026 -86.80128 19666 ft 344 kts 350°
2026-05-04 00:19 41.74397 -86.80438 19206 ft 342 kts 350°
2026-05-04 00:19 41.76727 -86.80741 18759 ft 340 kts 350°
2026-05-04 00:19 41.79067 -86.81102 18302 ft 336 kts 347°
2026-05-04 00:19 41.81358 -86.81664 17868 ft 333 kts 346°
2026-05-04 00:20 41.83608 -86.82203 17670 ft 331 kts 346°
2026-05-04 00:20 41.85851 -86.82896 17182 ft 328 kts 336°
2026-05-04 00:20 41.87804 -86.84378 16779 ft 321 kts 320°
2026-05-04 00:20 41.89523 -86.86275 16338 ft 320 kts 318°
2026-05-04 00:21 41.91223 -86.88185 15905 ft 318 kts 319°
2026-05-04 00:21 41.92916 -86.90079 15481 ft 316 kts 319°
2026-05-04 00:21 41.94575 -86.91930 15068 ft 314 kts 319°
2026-05-04 00:21 41.96245 -86.93790 14642 ft 309 kts 319°
2026-05-04 00:22 41.97881 -86.95610 14227 ft 302 kts 319°
2026-05-04 00:22 41.99479 -86.97394 13828 ft 295 kts 317°
2026-05-04 00:22 42.00713 -86.99526 13457 ft 287 kts 296°
2026-05-04 00:22 42.01174 -87.02094 13082 ft 284 kts 273°
2026-05-04 00:23 42.01110 -87.04720 12713 ft 279 kts 270°
2026-05-04 00:23 42.01008 -87.07317 12322 ft 276 kts 270°
2026-05-04 00:23 42.00910 -87.09846 11962 ft 274 kts 270°
2026-05-04 00:23 42.00809 -87.12395 11603 ft 272 kts 270°
2026-05-04 00:24 42.00707 -87.14936 11246 ft 272 kts 270°
2026-05-04 00:24 42.00605 -87.17474 10887 ft 272 kts 270°
2026-05-04 00:24 42.00502 -87.20005 10531 ft 271 kts 269°
2026-05-04 00:24 42.00400 -87.22528 10174 ft 270 kts 269°
2026-05-04 00:25 42.00299 -87.25044 9810 ft 269 kts 269°
2026-05-04 00:25 42.00199 -87.27549 9436 ft 267 kts 269°
2026-05-04 00:25 42.00103 -87.29992 9098 ft 264 kts 269°
2026-05-04 00:25 42.00008 -87.32449 8751 ft 262 kts 269°
2026-05-04 00:26 41.99913 -87.34884 8413 ft 259 kts 269°
2026-05-04 00:26 41.99821 -87.37296 8072 ft 257 kts 269°
2026-05-04 00:26 41.99498 -87.39657 7518 ft 264 kts 249°
2026-05-04 00:26 41.98786 -87.41922 7103 ft 259 kts 258°
2026-05-04 00:27 41.98695 -87.44319 6717 ft 255 kts 274°
2026-05-04 00:27 41.98810 -87.46647 6537 ft 246 kts 270°
2026-05-04 00:27 41.98753 -87.48933 6325 ft 244 kts 268°
2026-05-04 00:27 41.98735 -87.51180 6075 ft 244 kts 271°
2026-05-04 00:28 41.98779 -87.53465 5779 ft 245 kts 270°
2026-05-04 00:28 41.98780 -87.55751 5469 ft 244 kts 269°
2026-05-04 00:28 41.98774 -87.58026 5150 ft 242 kts 269°
2026-05-04 00:28 41.98789 -87.60259 4828 ft 237 kts 269°
2026-05-04 00:29 41.98796 -87.62454 4519 ft 233 kts 268°
2026-05-04 00:29 41.98797 -87.64619 4203 ft 230 kts 268°
2026-05-04 00:29 41.98804 -87.66738 3891 ft 223 kts 268°
2026-05-04 00:29 41.98809 -87.68733 3620 ft 209 kts 267°
2026-05-04 00:30 41.98811 -87.70623 3341 ft 197 kts 268°
2026-05-04 00:30 41.98814 -87.72453 3096 ft 194 kts 268°
2026-05-04 00:30 41.98818 -87.74214 2829 ft 181 kts 268°
2026-05-04 00:30 41.98820 -87.75840 2616 ft 168 kts 268°
2026-05-04 00:31 41.98822 -87.77341 2378 ft 152 kts 267°
2026-05-04 00:31 41.98825 -87.78679 2192 ft 134 kts 267°
2026-05-04 00:31 41.98826 -87.79876 2034 ft 127 kts 268°
2026-05-04 00:31 41.98827 -87.81059 1865 ft 129 kts 268°
2026-05-04 00:32 41.98830 -87.82272 1688 ft 131 kts 265°
2026-05-04 00:32 41.98824 -87.83521 1493 ft 139 kts 267°
2026-05-04 00:32 41.98831 -87.84857 1307 ft 142 kts 264°
2026-05-04 00:32 41.98837 -87.86138 1118 ft 135 kts 265°
2026-05-04 00:33 41.98825 -87.87401 935 ft 136 kts 268°
2026-05-04 00:33 41.98835 -87.89893 672 ft 120 kts 265°
2026-05-04 00:33 41.98831 -87.90833 667 ft 81 kts 270°
2026-05-04 00:34 41.98812 -87.91408 664 ft 42 kts 251°
2026-05-04 00:34 41.98696 -87.91695 668 ft 29 kts 249°
2026-05-04 00:34 41.98622 -87.91822 668 ft 13 kts 184°
2026-05-04 00:34 41.98563 -87.91815 668 ft 8 kts 185°
2026-05-04 00:35 41.98488 -87.91821 667 ft 14 kts 179°
2026-05-04 00:35 41.98362 -87.91821 667 ft 22 kts 181°
2026-05-04 00:35 41.98196 -87.91821 668 ft 19 kts 172°
2026-05-04 00:35 41.98166 -87.91731 668 ft 12 kts 90°
2026-05-04 00:36 41.98166 -87.91583 668 ft 20 kts 90°
2026-05-04 00:36 41.98166 -87.91369 668 ft 24 kts 96°
2026-05-04 00:36 41.98090 -87.91188 666 ft 17 kts 132°
2026-05-04 00:36 41.98041 -87.91193 667 ft 9 kts 210°
2026-05-04 00:37 41.97965 -87.91250 668 ft 16 kts 207°
2026-05-04 00:37 41.97848 -87.91300 668 ft 18 kts 186°
2026-05-04 00:37 41.97723 -87.91273 668 ft 19 kts 159°
2026-05-04 00:37 41.97611 -87.91181 668 ft 19 kts 142°
2026-05-04 00:38 41.97545 -87.91050 668 ft 17 kts 96°
2026-05-04 00:38 41.97565 -87.90894 667 ft 18 kts 69°
2026-05-04 00:38 41.97595 -87.90777 666 ft 2 kts 95°
2026-05-04 00:38 41.97577 -87.90757 667 ft 5 kts 156°
2026-05-04 00:39 41.97555 -87.90744 668 ft 2 kts 158°
2026-05-04 00:39 41.97547 -87.90740 668 ft 1 kts 158°
2026-05-04 00:39 41.97544 -87.90738 668 ft 0 kts 157°